EW9945 Weather Reports


time (UTC)temp
F
wind
direction
speed
knots
gust
knots
rain 1hr
in
rain 24hr
in
rain mn
in
humidity
%
barometer
mb
20260505184517 61 307 2.6 7.0 0.07 0.10 0.10 84 1005.4
20260505183010 64 318 7.0 21.7 0.05 0.08 0.08 72 1005.6
20260505181510 72 123 2.6 9.6 0.00 0.03 0.03 43 1004.3
20260505180009 74 153 3.5 13.0 0.00 0.03 0.03 42 1003.9
20260505174506 74 113 0.9 7.8 0.00 0.03 0.03 43 1004.2
20260505173004 73 201 0.9 12.2 0.00 0.03 0.03 45 1004.4
20260505171505 72 33 0.0 7.8 0.00 0.03 0.03 45 1004.7
20260505170002 71 140 2.6 9.6 0.00 0.03 0.03 48 1005.0
20260505164502 71 132 1.7 12.2 0.00 0.03 0.03 49 1005.0
20260505163002 70 153 0.9 11.3 0.00 0.03 0.03 49 1004.8
20260505161603 71 138 0.9 7.0 0.00 0.03 0.03 48 1004.8
20260505153105 71 301 2.6 12.2 0.00 0.03 0.03 47 1005.5
20260505151558 72 343 2.6 9.6 0.00 0.03 0.03 46 1005.7
20260505124534 66 120 0.0 3.5 0.00 0.03 0.03 61 1006.0
20260505123042 64 146 0.0 10.4 0.00 0.03 0.03 64 1006.1
20260505121529 62 165 0.0 8.7 0.00 0.03 0.03 68 1006.4
20260505120038 60 105 0.0 10.4 0.00 0.03 0.03 71 1006.4
20260505114525 59 151 0.9 9.6 0.00 0.03 0.03 71 1006.2
20260505113021 59 109 0.0 6.1 0.00 0.03 0.03 75 1006.2
20260505111529 57 116 0.0 3.5 0.00 0.03 0.03 78 1005.9
20260505101514 57 111 0.0 3.5 0.03 0.03 0.03 79 1005.5
20260505100012 57 128 1.7 7.8 0.03 0.03 0.03 79 1005.5
20260505094508 59 121 3.5 15.6 0.03 0.03 0.03 72 1005.8
20260505093005 59 111 0.9 7.0 0.00 0.00 0.00 67 1005.6
20260505091501 59 107 2.6 7.0 0.00 0.00 0.00 66 1005.5
20260505090001 60 106 0.0 3.5 0.00 0.00 0.00 64 1005.7
20260505084501 60 103 0.0 7.0 0.00 0.00 0.00 64 1005.9
20260505083001 60 138 0.0 4.3 0.00 0.00 0.00 63 1005.7
20260505081501 61 106 0.0 7.0 0.00 0.00 0.00 62 1005.2
20260505080106 60 123 0.0 9.6 0.00 0.00 0.00 63 1005.4
20260505074600 60 119 0.0 6.1 0.00 0.00 0.00 63 1005.3
20260505073103 61 117 2.6 7.0 0.00 0.00 0.00 62 1005.2
20260505071615 61 114 0.0 3.5 0.00 0.00 0.00 63 1005.4
20260505070104 61 168 0.0 4.3 0.00 0.00 0.00 62 1005.3
20260505064610 61 145 0.9 5.2 0.00 0.00 0.00 62 1005.3
20260505063101 61 149 0.9 4.3 0.00 0.00 0.00 62 1005.5
20260505061604 61 148 0.0 3.5 0.00 0.00 0.00 62 1005.4
20260505060103 61 143 0.0 4.3 0.00 0.00 0.00 62 1005.6
20260505054601 62 186 0.0 8.7 0.00 0.00 0.00 61 1005.8
20260505053059 62 121 0.9 5.2 0.00 0.00 0.00 61 1006.0
20260505051557 62 131 0.9 7.8 0.00 0.00 0.00 60 1006.1
20260505041603 63 148 0.0 4.3 0.00 0.00 0.00 58 1006.2
20260505040057 62 94 0.9 5.2 0.00 0.00 0.00 57 1006.1
20260505034555 63 177 0.9 6.1 0.00 0.00 0.00 55 1006.0
20260505033055 63 114 0.0 7.0 0.00 0.00 0.00 54 1005.9
20260505031555 63 195 0.0 1.7 0.00 0.00 0.00 53 1006.1
20260505030110 64 195 0.0 0.0 0.00 0.00 0.00 51 1006.3
20260505024559 64 195 0.0 1.7 0.00 0.00 0.00 50 1006.3
20260505023054 64 194 0.0 2.6 0.00 0.00 0.00 49 1006.3
20260505021553 64 158 0.0 1.7 0.00 0.00 0.00 49 1006.5
20260505020058 64 157 0.0 4.3 0.00 0.00 0.00 47 1006.5
20260505014607 64 117 0.0 3.5 0.00 0.00 0.00 46 1006.4
20260505013056 64 123 0.0 3.5 0.00 0.00 0.00 46 1006.3
20260505011556 65 148 0.0 7.0 0.00 0.00 0.00 45 1006.2
20260505004554 66 31 0.0 4.3 0.00 0.00 0.00 43 1005.8
20260505003059 66 181 0.0 1.7 0.00 0.00 0.00 41 1005.7
20260505001557 67 197 0.0 4.3 0.00 0.00 0.00 38 1005.7
20260505000056 68 235 0.0 6.1 0.00 0.00 0.00 36 1005.5
20260504234550 68 170 0.0 3.5 0.00 0.00 0.00 35 1005.5
20260504233049 68 208 0.9 6.1 0.00 0.00 0.00 35 1005.2
20260504231548 69 61 0.9 7.8 0.00 0.00 0.00 34 1005.2
20260504230050 70 134 0.0 8.7 0.00 0.00 0.00 33 1005.2
20260504224552 70 126 0.0 12.2 0.00 0.00 0.00 31 1005.0
20260504223102 70 130 1.7 14.8 0.00 0.00 0.00 30 1004.9
20260504221551 71 128 0.9 13.9 0.00 0.00 0.00 30 1005.0
20260504220048 71 127 0.0 9.6 0.00 0.00 0.00 29 1004.9
20260504214548 71 201 0.0 9.6 0.00 0.00 0.00 29 1004.9
20260504213047 72 129 0.9 7.0 0.00 0.00 0.00 30 1004.9
20260504211624 71 134 0.9 10.4 0.00 0.00 0.00 31 1005.0
20260504210050 72 169 0.0 6.1 0.00 0.00 0.00 29 1004.9
20260504204545 72 222 2.6 12.2 0.00 0.00 0.00 28 1005.2
20260504203044 72 223 0.9 7.0 0.00 0.00 0.00 26 1005.2
20260504201541 73 342 2.6 10.4 0.00 0.00 0.00 27 1005.4
20260504200042 72 328 0.0 16.5 0.00 0.00 0.00 28 1005.7
20260504194547 73 265 2.6 11.3 0.00 0.00 0.00 28 1006.0
20260504193037 72 299 6.1 15.6 0.00 0.00 0.00 27 1006.3
20260504191536 71 271 2.6 12.2 0.00 0.00 0.00 30 1006.5
20260504190030 70 282 4.3 12.2 0.00 0.00 0.00 32 1006.6
20260504184542 70 101 0.9 13.0 0.00 0.00 0.00 33 1007.1